Flag for Iran Weather past 2 weeks in Esfahãn, Iran

Now
75 °F

Clear.


Feels Like: 77 °F
Forecast: 63 / 99 °F
Wind: 7 mph from North

Location: Esfahan

Current Time: Jul 30, 2014 at 5:11:23 AM

Latest Report: Jul 30, 2014 at 4:30 AM


Visibility: 2 mi

Pressure: 29.80 "Hg

Humidity: 29%

Dew point: 41 °F

Location of EsfahãnLocation

Historic Weather in Esfahãn — Graph

°F

Esfahãn temperature yesterday

Maximum temperature yesterday: 99 °F (at 3:00 PM)
Minimum temperature yesterday: 73 °F (at 6:30 AM)
Average temperature yesterday: 87 °F

Past Weeks' High & Low Weather Summary

 TemperatureHumidityPressure
High106 °F (Jul 28, 2:30 PM)34% (Jul 15, 6:30 AM)30.01 "Hg (Jul 15, 6:30 AM)
Low59 °F (Jul 15, 6:00 AM)3% (Jul 28, 1:30 PM)29.68 "Hg (Jul 21, 7:00 PM)
Average86 °F13%29.86 "Hg
* Reported Jul 15 3:30 AM — Jul 30 4:00 AM, Esfahãn, Weather by CustomWeather, © 2014

Note: Actual official high and low records may vary slightly from our data, if they occured in-between our weather recording intervals... More about our weather records

Advertising

Esfahãn weather history for previous 24 hours

 ConditionsComfort  
Time TempWeatherWind HumidityBarometerVisibility
4:00 AM
Jul 30
75 °FClear.7 mph29%29.80 "Hg2 mi
3:30 AM75 °FClear.5 mph29%29.80 "Hg2 mi
3:00 AM77 °FClear.No wind26%29.80 "Hg2 mi
2:30 AM79 °FClear.5 mph24%29.80 "Hg2 mi
2:00 AM73 °FSandstorm.7 mph27%29.80 "Hg2 mi
1:30 AM77 °FSandstorm.7 mph24%29.80 "Hg2 mi
1:00 AM81 °FSandstorm.5 mph23%29.80 "Hg1 mi
12:30 AM84 °FSandstorm.7 mph20%29.80 "Hg1 mi
12:00 AM84 °FSandstorm.7 mph20%29.80 "Hg1 mi
11:30 PM
Jul 29
84 °FSandstorm.14 mph20%29.80 "Hg1 mi
11:00 PM84 °FSandstorm.12 mph20%29.77 "Hg1 mi
10:30 PM84 °FSandstorm.14 mph20%29.77 "Hg1 mi
10:00 PM84 °FSandstorm.14 mph20%29.77 "Hg1 mi
9:30 PM86 °FSandstorm.16 mph19%29.74 "Hg1 mi
9:00 PM86 °FSandstorm.12 mph19%29.74 "Hg1 mi
8:30 PM88 °FSandstorm.16 mph18%29.74 "Hg1 mi
8:00 PM88 °FSandstorm.18 mph18%29.74 "Hg1 mi
7:30 PM90 °FSandstorm.16 mph17%29.71 "Hg1 mi
7:00 PM91 °FSandstorm.22 mph17%29.71 "Hg1 mi
6:30 PM93 °FSandstorm.22 mph15%29.71 "Hg1 mi
6:00 PM95 °FSandstorm.21 mph14%29.71 "Hg1 mi
5:30 PM95 °FSandstorm.16 mph14%29.71 "Hg1 mi
5:00 PM97 °FSunny.18 mph13%29.71 "Hg2 mi
4:30 PM97 °FSunny.18 mph13%29.71 "Hg2 mi
4:00 PM99 °FSunny.12 mph14%29.71 "Hg2 mi
3:30 PM99 °FSunny.7 mph10%29.71 "Hg3 mi
3:00 PM99 °FSunny.7 mph11%29.71 "Hg3 mi
2:30 PM97 °FSunny.No wind13%29.74 "Hg2 mi
2:00 PM97 °FSunny.7 mph12%29.74 "Hg2 mi
1:30 PM97 °FSunny.7 mph12%29.77 "Hg2 mi
1:00 PM95 °FSunny.5 mph12%29.77 "Hg2 mi
12:30 PM93 °FSunny.5 mph13%29.77 "Hg2 mi
12:00 PM93 °FSunny.5 mph15%29.77 "Hg2 mi
11:30 AM93 °FSunny.5 mph16%29.80 "Hg2 mi
11:00 AM93 °FSunny.5 mph16%29.80 "Hg2 mi
10:30 AM91 °FSunny.9 mph16%29.80 "Hg2 mi
10:00 AM90 °FSunny.No wind20%29.80 "Hg2 mi
9:30 AM88 °FSunny.No wind22%29.80 "Hg2 mi
9:00 AM84 °FSunny.7 mph27%29.80 "Hg2 mi
8:30 AM82 °FSunny.5 mph26%29.80 "Hg2 mi
8:00 AM79 °FSunny.5 mph30%29.80 "Hg2 mi
7:30 AM77 °FClear.5 mph34%29.80 "Hg2 mi
7:00 AM77 °FClear.5 mph30%29.77 "Hg2 mi
6:30 AM73 °FClear.5 mph33%29.77 "Hg2 mi
6:00 AM75 °FClear.7 mph31%29.77 "Hg3 mi
5:30 AM77 °FClear.14 mph28%29.77 "Hg10 mi
5:00 AM77 °FClear.7 mph26%29.77 "Hg10 mi
Weather by CustomWeather, © 2014

See weather overviewHow to use our weather pages